[ hide orbit diagram ]
For accurate long-term ephemerides, please instead use our Horizons system.This orbit viewer was implemented using two-body methods, and hence should not be used for determining accurate long-term trajectories (over several years or decades) or planetary encounter circumstances.
Orbital Elements at Epoch 2459000.5 (2020-May-31.0) TDB
Reference: JPL 14 (heliocentric ecliptic J2000)
Element | Value | Uncertainty (1-sigma) | Units |
e | .07268368500172612 | 5.2518e-08 | |
a | 2.810140786638771 | 2.1578e-08 | au |
q | 2.605889398892216 | 1.5238e-07 | au |
i | 3.97061966314044 | 6.233e-06 | deg |
node | 159.487816262138 | 6.3035e-05 | deg |
peri | 346.2666832321473 | 7.2445e-05 | deg |
M | 194.2962604993413 | 3.692e-05 | deg |
tp | 2459792.491194591030 (2022-Jul-31.99119459) | 0.00018032 | TDB |
period | 1720.642098433979 4.71 | 1.9818e-05 5.426e-08 | d yr |
n | .2092242194513604 | 2.4098e-09 | deg/d |
Q | 3.014392174385326 | 2.3146e-08 | au |
|
| | Orbit Determination Parameters
Additional Information
|
[ show covariance matrix ]
Physical Parameter Table
Parameter |
Symbol |
Value |
Units |
Sigma |
Reference |
Notes |
absolute magnitude |
H |
15.9 |
|
n/a |
MPO437025 |
|
|
214047 (2004 EP74) Discovered 2004-Mar-13 by NEAT at Palomar |
Reference: 20090509/Numbers.arc | Last Updated: 2009-05-11 |
|
[ show close-approach data ]
|